[[[{"header":{"parameterUnit":"kt","parameterCategory":2,"dx":1,"dy":1,"la1":30.253999710083008,"la2":30.299108505249023,"lo1":-89.0895004272461,"lo2":-89.04439544677734,"nx":28,"ny":28,"refTime":"2022-09-21T21:00:00:Z","depth":0,"parameterNumber":1,"parameterNumberName":"U-component_of_WINDS"},"data":[-8.1267,-8.1497,-8.1464,-8.171,-8.1722,-8.1884,-8.1931,-8.1988,-8.2025,-8.2214,-8.2316,-8.2305,-8.2326,-8.244,-8.2548,-8.2539,-8.2588,-8.2694,-8.2666,-8.2222,-8.2158,-8.2097,-8.204,-8.2706,-8.2706,-8.3131,-8.3135,-8.3138,-8.0946,-8.0961,-8.1082,-8.1175,-8.1278,-8.1156,-8.1219,-8.1313,-8.1461,-8.1508,-8.1606,-8.1769,-8.1892,-8.1877,-8.199,-8.2095,-8.2043,-8.2128,-8.2119,-8.2124,-8.1648,-8.1588,-8.2168,-8.2168,-8.2168,-8.2168,-8.2168,-8.2168,-8.0353,-8.0492,-8.0528,-8.0658,-8.0695,-8.0758,-8.0884,-8.0866,-8.0983,-8.1096,-8.1031,-8.1198,-8.1236,-8.1353,-8.1384,-8.1511,-8.141,-8.1492,-8.1512,-8.1534,-8.1564,-8.0956,-8.1529,-8.1527,-8.1525,-8.1524,-8.1522,0,-7.9907,-7.9869,-7.9981,-8.0085,-8.0176,-8.0253,-8.0316,-8.0393,-8.0297,-8.0397,-8.0539,-8.0614,-8.0763,-8.0891,-8.0988,-8.1001,-8.0882,-8.0866,-8.0922,-8.0956,-8.0975,-8.0968,-8.0193,-8.0849,-8.0843,-8.0839,-8.0836,-8.0834,-7.9305,-7.9471,-7.949,-7.9574,-7.9599,-7.9736,-7.9809,-7.9712,-7.9794,-7.9857,-7.9984,-8.0111,-8.0207,-8.0439,-8.0414,-8.0525,-8.0467,-8.0722,-8.0483,-8.051,-8.0471,-8.0463,-8.0478,-8.0771,-8.0779,-8.0785,-8.0791,0,-7.897,-7.891,-7.9155,-7.9156,-7.9162,-7.9341,-7.9341,-7.9475,-7.9441,-7.962,-7.9656,-7.9604,-7.9744,-7.9676,-7.9822,-7.9782,-8.0076,-8.0017,-8.0062,-8.0046,-8.0268,-8.0248,-8.0997,-8.109,-8.0399,-8.0406,-8.0411,0,-7.8432,-7.8653,-7.8551,-7.8696,-7.8938,-7.8833,-7.9075,-7.9069,-7.9099,-7.9239,-7.9092,-7.9227,-7.9118,-7.9244,-7.9185,-7.9413,-7.944,-7.9423,-7.9405,-7.9437,-7.9439,-7.9479,-7.9447,-7.9357,-7.9353,-7.9349,-7.9347,0,-7.7913,-7.8116,-7.8351,-7.8387,-7.841,-7.8523,-7.8537,-7.8568,-7.8641,-7.8724,-7.877,-7.8875,-7.8933,-7.9016,-7.894,-7.8781,-7.9216,-7.8981,-7.9199,-7.9201,-7.9299,-7.9294,-7.9974,-7.9342,-7.9341,-7.9339,-7.9338,0,-7.7468,-7.7554,-7.7904,-7.7918,-7.7976,-7.8131,-7.8225,-7.8342,-7.8385,-7.8358,-7.8422,-7.8315,-7.8507,-7.8279,-7.8542,-7.8356,-7.8422,-7.8422,-7.8437,-7.845,-7.8197,-7.8591,-7.9244,-7.931,-7.8462,-7.8455,-7.8449,0,-7.6891,-7.7227,-7.7137,-7.7471,-7.7616,-7.7439,-7.7609,-7.7651,-7.7629,-7.7748,-7.7721,-7.7859,-7.7674,-7.7707,-7.7846,-7.7825,-7.8067,-7.779,-7.7965,-7.7973,-7.796,-7.856,-7.8674,-7.9108,-7.8354,-7.8364,-7.8371,0,-7.6435,-7.6458,-7.6524,-7.656,-7.6599,-7.6719,-7.6914,-7.7025,-7.711,-7.7173,-7.7334,-7.7525,-7.7393,-7.7449,-7.7373,-7.7522,-7.79,-7.736,-7.7359,-7.7461,-7.83,-7.8408,-7.8482,-7.7816,-7.7827,-7.7836,-7.8296,0,-7.5779,-7.5938,-7.6112,-7.6197,-7.6278,-7.6483,-7.6407,-7.6503,-7.642,-7.6389,-7.6625,-7.6641,-7.6755,-7.6818,-7.6739,-7.7102,-7.703,-7.6888,-7.6661,-7.7055,-7.7205,-7.7266,-7.6444,-7.6437,-7.6431,-7.6426,0,0,-7.5242,-7.5466,-7.536,-7.5544,-7.5607,-7.5418,-7.5643,-7.5682,-7.5765,-7.5812,-7.5684,-7.5956,-7.5976,-7.6269,-7.6386,-7.6432,-7.649,-7.6355,-7.6868,-7.6918,-7.6964,-7.7125,-7.719,-7.6415,-7.6413,-7.6411,-7.6409,0,-7.4986,-7.5008,-7.5231,-7.5265,-7.5312,-7.5268,-7.5323,-7.5336,-7.5327,-7.5555,-7.5397,-7.5528,-7.5749,-7.579,-7.584,-7.6317,-7.6191,-7.6358,-7.6641,-7.681,-7.6868,-7.6919,-7.709,-7.7152,-7.6394,-7.6395,-7.6396,0,-7.4524,-7.4533,-7.4632,-7.4762,-7.4791,-7.4944,-7.4687,-7.486,-7.4972,-7.4757,-7.4987,-7.4986,-7.5034,-7.5321,-7.5446,-7.5334,-7.5924,-7.5723,-7.5759,-7.5772,-7.5933,-7.6002,-7.6064,-7.525,-7.5246,-7.5243,0,0,-7.4313,-7.4458,-7.4436,-7.4701,-7.4731,-7.4668,-7.4741,-7.4665,-7.4711,-7.4731,-7.4726,-7.4777,-7.4903,-7.4989,-7.5103,-7.5429,-7.5431,-7.5586,-7.564,-7.5684,-7.5721,-7.5894,-7.5962,-7.5229,-7.5229,-7.5228,0,0,-7.4212,-7.4196,-7.4103,-7.4401,-7.4451,-7.4446,-7.4611,-7.4498,-7.4592,-7.456,-7.4441,-7.4449,-7.4715,-7.4721,-7.4544,-7.5022,-7.4798,-7.4839,-7.5008,-7.5076,-7.5129,-7.5122,-7.4283,0,0,0,0,0,-7.391,-7.4197,-7.4113,-7.4152,-7.4315,-7.4492,-7.4513,-7.442,-7.4263,-7.4397,-7.4375,-7.4234,-7.4601,-7.4441,-7.4481,-7.468,-7.505,-7.5082,-7.5112,-7.5406,-7.5477,-7.5537,0,0,0,0,0,0,-7.3924,-7.3972,-7.4105,-7.4115,-7.415,-7.4481,-7.4196,-7.4178,-7.4247,-7.4216,-7.4242,-7.4234,-7.4159,-7.4414,-7.4452,-7.4643,-7.427,-7.5063,-7.5089,-7.5114,-7.543,-7.5489,-7.5538,0,0,0,0,0,-7.3935,-7.3973,-7.426,-7.4109,-7.4141,-7.4086,-7.4184,-7.4167,-7.4219,-7.4185,-7.4172,-7.4142,-7.4167,-7.4192,-7.4436,-7.4628,-7.4243,-7.4257,-7.508,-7.5101,-7.512,-7.5459,0,0,0,0,0,0,-7.3943,-7.3959,-7.4264,-7.427,-7.3993,-7.4065,-7.4073,-7.4159,-7.418,-7.4171,-7.4077,-7.4054,-7.4176,-7.4194,-7.4215,-7.4628,-7.4221,-7.4236,-7.4245,-7.5096,-7.5113,-7.5128,0,0,0,0,0,0,-7.3938,-7.3966,-7.4267,-7.4126,-7.4115,-7.4047,-7.4054,-7.4247,-7.4183,-7.4071,-7.4051,-7.4067,-7.4145,-7.4197,-7.4212,-7.4517,-7.4204,-7.4218,-7.4228,-7.4234,-7.511,-7.5123,0,0,0,0,0,0,-7.3948,-7.3972,-7.4123,-7.4115,-7.4105,-7.4165,-7.4215,-7.4389,-7.4062,-7.4073,-7.403,-7.4015,-7.4153,-7.4166,-7.4212,-7.4511,-7.4516,-7.4205,-7.4214,-7.4221,-7.4226,0,0,0,0,0,0,0,-7.3956,-7.3819,-7.4229,-7.4107,-7.4097,-7.4326,-7.4327,-7.4329,-7.4058,-7.4046,-7.4033,-7.4021,-7.4124,-7.4139,-7.4155,-7.4507,0,0,-7.4203,-7.421,0,0,0,0,0,0,0,0,-7.3807,-7.3816,-7.4229,-7.423,-7.4231,-7.4326,-7.4327,-7.4329,-7.4056,-7.4046,-7.4036,-7.4026,-7.4128,-7.414,-7.4153,0,0,0,0,0,0,0,0,0,0,0,0,0,0,0,-7.4229,-7.423,0,-7.4326,-7.4327,-7.4328,-7.4055,-7.4046,-7.4038,-7.403,-7.4131,-7.4142,-7.4152,0,0,0,0,0,0,0,0,0,0,0,0,0,0,0,0,0,0,0,0,0,0,0,0,0,0,0,0,0,0,0,0,0,0,0,0,0,0,0,0,0,0,0,0,0,0,0,0,0,0,0,0,0,0,0,0,0,0,0,0,0,0,0,0,0,0,0,0,0]}],[{"header":{"parameterUnit":"kt","parameterCategory":2,"dx":1,"dy":1,"la1":30.253999710083008,"la2":30.299108505249023,"lo1":-89.0895004272461,"lo2":-89.04439544677734,"nx":28,"ny":28,"refTime":"2022-09-21T21:00:00:Z","depth":0,"parameterNumber":2,"parameterNumberName":"V-component_of_WINDS"},"data":[-9.4953,-9.5097,-9.5099,-9.5263,-9.5291,-9.5401,-9.5441,-9.5491,-9.553,-9.5658,-9.5731,-9.5743,-9.5779,-9.5863,-9.5939,-9.5941,-9.5973,-9.6023,-9.6018,-9.5797,-9.5766,-9.5737,-9.5704,-9.6031,-9.6031,-9.6246,-9.6248,-9.6249,-9.4787,-9.4818,-9.4906,-9.4992,-9.5066,-9.5019,-9.5081,-9.5145,-9.5244,-9.5293,-9.5365,-9.5477,-9.5563,-9.5582,-9.5664,-9.5727,-9.5707,-9.5749,-9.5743,-9.5749,-9.5514,-9.5479,-9.5763,-9.5763,-9.5763,-9.5763,-9.5763,-9.5763,-9.4486,-9.4573,-9.4627,-9.4722,-9.4765,-9.4822,-9.4903,-9.4918,-9.5002,-9.5092,-9.5074,-9.5184,-9.5231,-9.5329,-9.5361,-9.5444,-9.5397,-9.5441,-9.5452,-9.5463,-9.5476,-9.5163,-9.5457,-9.5457,-9.5456,-9.5455,-9.5455,0,-9.4266,-9.4262,-9.4347,-9.4433,-9.4502,-9.4567,-9.4626,-9.4676,-9.4663,-9.4732,-9.4831,-9.4887,-9.4997,-9.5087,-9.5163,-9.5187,-9.5141,-9.5136,-9.5166,-9.5177,-9.5176,-9.5177,-9.4791,-9.5128,-9.5125,-9.5123,-9.5121,-9.512,-9.3962,-9.4064,-9.4121,-9.418,-9.4213,-9.4309,-9.4365,-9.4346,-9.4406,-9.4474,-9.4549,-9.4641,-9.4713,-9.4868,-9.488,-9.4961,-9.4939,-9.5067,-9.495,-9.4956,-9.4939,-9.4933,-9.4942,-9.509,-9.5094,-9.5097,-9.51,0,-9.3789,-9.3792,-9.395,-9.3996,-9.401,-9.4117,-9.4153,-9.4237,-9.4242,-9.4358,-9.4384,-9.4391,-9.4487,-9.4479,-9.4586,-9.4578,-9.4746,-9.4723,-9.4729,-9.4724,-9.4837,-9.4826,-9.5209,-9.5257,-9.492,-9.4923,-9.4925,0,-9.353,-9.3665,-9.366,-9.3752,-9.3899,-9.3878,-9.4023,-9.4042,-9.4085,-9.4176,-9.4125,-9.4211,-9.4187,-9.4271,-9.426,-9.4396,-9.4416,-9.4418,-9.4413,-9.4423,-9.4423,-9.4452,-9.4436,-9.4401,-9.4399,-9.4397,-9.4395,0,-9.326,-9.3416,-9.3565,-9.3601,-9.3663,-9.3732,-9.376,-9.3808,-9.3862,-9.3932,-9.3966,-9.4048,-9.4092,-9.4154,-9.414,-9.4061,-9.4306,-9.4194,-9.4307,-9.4308,-9.4362,-9.4359,-9.47,-9.4393,-9.4392,-9.4392,-9.4391,0,-9.3051,-9.3127,-9.3344,-9.3393,-9.3435,-9.3532,-9.3613,-9.3695,-9.3748,-9.3749,-9.3803,-9.3767,-9.3888,-9.3777,-9.394,-9.3841,-9.3887,-9.3899,-9.3907,-9.3917,-9.3794,-9.3986,-9.4313,-9.4346,-9.3926,-9.3922,-9.3918,0,-9.2741,-9.2961,-9.2946,-9.3151,-9.3252,-9.3189,-9.3296,-9.3346,-9.3356,-9.344,-9.3449,-9.3544,-9.346,-9.3489,-9.3571,-9.3583,-9.3712,-9.3566,-9.3681,-9.3685,-9.3669,-9.3969,-9.402,-9.4242,-9.3869,-9.3874,-9.3878,0,-9.2501,-9.2579,-9.2617,-9.2656,-9.2722,-9.2806,-9.2929,-9.3021,-9.3078,-9.314,-9.3241,-9.3374,-9.3316,-9.3364,-9.3344,-9.343,-9.3624,-9.3355,-9.3356,-9.3403,-9.3844,-9.3891,-9.3929,-9.359,-9.3596,-9.3601,-9.3838,0,-9.2182,-9.2294,-9.2397,-9.2488,-9.2552,-9.2681,-9.2678,-9.2744,-9.2719,-9.2728,-9.2876,-9.2915,-9.3006,-9.3047,-9.3023,-9.3223,-9.3188,-9.3125,-9.3017,-9.3214,-9.3292,-9.3324,-9.2901,-9.2898,-9.2895,-9.2893,0,0,-9.1884,-9.2044,-9.2025,-9.2146,-9.2199,-9.2133,-9.2271,-9.2314,-9.2403,-9.2439,-9.2379,-9.2574,-9.2608,-9.2788,-9.285,-9.2887,-9.2921,-9.2853,-9.312,-9.3146,-9.3169,-9.3253,-9.3286,-9.2888,-9.2887,-9.2886,-9.2885,0,-9.1768,-9.1811,-9.1949,-9.1994,-9.206,-9.2063,-9.2096,-9.2148,-9.216,-9.2307,-9.2248,-9.2336,-9.2494,-9.2537,-9.258,-9.2831,-9.278,-9.2859,-9.2996,-9.3093,-9.3122,-9.3148,-9.3236,-9.3268,-9.2878,-9.2879,-9.2879,0,-9.153,-9.1571,-9.1639,-9.1759,-9.1801,-9.1906,-9.1792,-9.1908,-9.1985,-9.1904,-9.2051,-9.2072,-9.213,-9.2302,-9.2379,-9.2326,-9.2652,-9.2549,-9.2566,-9.2574,-9.2668,-9.2703,-9.2734,-9.2324,-9.2322,-9.232,0,0,-9.1429,-9.1534,-9.1572,-9.1734,-9.1764,-9.1771,-9.1827,-9.1809,-9.1865,-9.1888,-9.1914,-9.1968,-9.2058,-9.2119,-9.2203,-9.2394,-9.2403,-9.2481,-9.2507,-9.2529,-9.2549,-9.2648,-9.2683,-9.2313,-9.2313,-9.2312,0,0,-9.1381,-9.1432,-9.1399,-9.1587,-9.1644,-9.169,-9.1787,-9.1746,-9.1823,-9.1808,-9.178,-9.1793,-9.1954,-9.1977,-9.1881,-9.2164,-9.2057,-9.208,-9.2144,-9.2177,-9.2203,-9.2193,-9.1768,0,0,0,0,0,-9.1261,-9.1426,-9.1395,-9.1427,-9.1578,-9.1707,-9.1726,-9.1709,-9.1633,-9.171,-9.1725,-9.1668,-9.1919,-9.1834,-9.1864,-9.197,-9.222,-9.2237,-9.2252,-9.238,-9.2414,-9.2443,0,0,0,0,0,0,-9.1273,-9.1312,-9.1391,-9.1444,-9.1478,-9.1701,-9.1569,-9.1569,-9.1625,-9.1612,-9.1667,-9.167,-9.1656,-9.1818,-9.1845,-9.1946,-9.1759,-9.2227,-9.2241,-9.2253,-9.2392,-9.242,-9.2444,0,0,0,0,0,-9.1283,-9.1314,-9.1562,-9.1442,-9.1471,-9.1488,-9.1563,-9.1562,-9.1604,-9.1629,-9.1629,-9.1586,-9.1659,-9.168,-9.1834,-9.1934,-9.1741,-9.1751,-9.2236,-9.2247,-9.2257,-9.2405,0,0,0,0,0,0,-9.129,-9.1312,-9.1567,-9.1575,-9.1379,-9.1475,-9.1489,-9.1556,-9.1616,-9.162,-9.1545,-9.1534,-9.1664,-9.1679,-9.1696,-9.1932,-9.1725,-9.1736,-9.1742,-9.2244,-9.2253,-9.2261,0,0,0,0,0,0,-9.1295,-9.132,-9.1571,-9.1493,-9.1492,-9.1463,-9.1476,-9.1603,-9.1618,-9.1529,-9.1522,-9.1539,-9.1637,-9.168,-9.1692,-9.1891,-9.1714,-9.1723,-9.173,-9.1735,-9.2251,-9.2258,0,0,0,0,0,0,-9.1305,-9.1326,-9.1491,-9.149,-9.1489,-9.1578,-9.1574,-9.1729,-9.1555,-9.1527,-9.1538,-9.1531,-9.1639,-9.1651,-9.169,-9.1884,-9.1889,-9.1714,-9.1721,-9.1725,-9.1728,0,0,0,0,0,0,0,-9.1313,-9.1179,-9.1519,-9.1488,-9.1486,-9.165,-9.1652,-9.1654,-9.1553,-9.1546,-9.154,-9.1534,-9.1657,-9.1668,-9.1679,-9.1878,0,0,-9.1713,-9.1718,0,0,0,0,0,0,0,0,-9.117,-9.1177,-9.152,-9.1521,-9.1523,-9.165,-9.1652,-9.1654,-9.1552,-9.1547,-9.1541,-9.1536,-9.166,-9.1669,-9.1678,0,0,0,0,0,0,0,0,0,0,0,0,0,0,0,-9.152,-9.1521,0,-9.1651,-9.1652,-9.1653,-9.1551,-9.1547,-9.1542,-9.1538,-9.1663,-9.167,-9.1677,0,0,0,0,0,0,0,0,0,0,0,0,0,0,0,0,0,0,0,0,0,0,0,0,0,0,0,0,0,0,0,0,0,0,0,0,0,0,0,0,0,0,0,0,0,0,0,0,0,0,0,0,0,0,0,0,0,0,0,0,0,0,0,0,0,0,0,0,0]}]]]